Wind_Speed
49 49 49 49 49 49 47 47 47 47 46 46 46 46 45 45 45 45 45 45 45 45 45 45 44 44 44 45 45 45 45 45 45 45 46 46 47 47 46 47 47 47 47
49 49 49 50 50 50 49 47 47 47 47 46 46 46 46 47 47 46 45 45 46 46 46 46 46 46 46 45 45 46 46 46 46 46 46 47 48 47 47 48 48 48 48
48 49 49 50 49 50 50 49 48 48 47 47 47 47 47 47 47 46 46 47 47 46 47 47 47 47 47 46 46 46 47 47 47 48 47 47 48 48 48 48 48 49 49
48 49 49 49 49 49 50 50 50 49 49 49 49 49 48 48 48 47 47 47 48 48 48 48 47 47 48 47 47 47 48 48 48 49 49 47 48 49 48 48 49 50 50
45 47 48 49 49 50 50 50 50 50 51 50 50 50 49 48 48 47 47 47 48 48 48 47 47 48 48 48 48 48 49 49 49 49 49 48 48 49 49 49 50 51 52
44 45 48 49 50 50 50 50 50 50 50 50 50 50 50 49 48 47 47 47 47 47 48 48 48 48 48 48 49 49 50 50 50 50 50 50 50 50 50 50 51 51 51
43 43 45 48 50 51 50 51 51 51 52 51 51 50 50 50 49 48 48 48 48 48 48 49 49 48 48 49 49 49 50 50 50 51 51 51 51 51 51 51 50 50 50
41 42 44 45 47 48 48 49 50 49 49 49 49 49 48 48 49 49 48 48 48 48 48 48 48 48 48 48 48 49 49 50 51 51 51 51 51 51 51 51 51 50 50
40 40 42 43 45 47 47 48 48 48 48 48 49 48 47 47 47 48 48 47 48 48 47 46 47 47 48 48 49 49 49 50 50 50 49 49 49 50 50 50 50 50 50
38 39 40 42 43 45 46 47 48 49 49 49 47 47 47 47 47 47 47 47 47 47 46 46 47 47 47 48 49 49 48 48 48 48 47 48 49 49 49 49 49 49 49
37 38 39 41 42 43 44 45 47 48 48 48 47 47 48 48 48 47 47 46 46 46 46 46 46 46 47 48 48 48 47 47 46 46 47 48 48 48 48 47 47 48 47
36 37 39 40 40 42 43 44 45 46 46 47 47 47 47 47 47 46 46 46 46 46 46 46 46 46 46 47 47 47 46 46 46 47 47 47 47 47 47 47 48 48 47
35 36 37 39 40 41 42 42 43 44 44 44 45 46 46 46 45 46 46 45 45 45 45 46 46 46 46 46 45 45 45 45 46 46 46 46 47 47 47 47 47 46 45
35 36 36 37 38 39 41 41 42 43 42 42 42 43 44 44 44 45 45 45 45 45 45 45 45 45 45 45 45 44 45 45 46 46 46 46 46 46 46 45 44 43 42
34 35 35 35 36 36 38 39 39 39 40 40 40 41 42 42 43 44 44 45 45 45 45 45 45 45 45 45 44 45 45 45 45 45 45 45 45 44 43 42 41 41 41
34 34 35 34 35 35 36 36 36 37 37 38 38 39 40 41 42 43 43 44 44 44 44 43 43 44 44 44 44 45 45 45 44 44 44 43 43 42 41 40 39 39 39
34 35 34 34 34 34 34 34 35 36 36 37 38 39 40 40 40 41 41 41 42 42 42 42 43 43 43 44 44 44 44 44 44 43 42 41 40 39 38 37 37 38 37
33 33 34 34 34 34 34 34 35 36 36 37 38 39 39 39 39 39 39 39 40 41 41 41 42 42 43 43 43 43 42 42 41 40 39 38 37 36 36 35 35 35 35
32 34 34 34 34 34 34 35 35 36 36 37 37 37 37 37 37 37 38 39 40 40 40 40 40 41 41 40 40 40 39 39 38 36 35 34 34 34 34 34 34 33 33
32 32 33 33 34 34 34 34 34 34 35 35 35 35 35 35 36 36 37 38 38 38 38 39 39 39 38 38 37 37 36 36 34 33 33 33 33 33 33 33 33 33 32
30 31 31 32 32 33 33 33 33 33 34 34 34 35 35 35 36 36 36 36 36 36 37 37 36 36 36 35 35 34 34 33 32 32 32 32 32 32 32 32 32 32 32
26 27 28 29 30 31 31 32 33 33 33 33 33 34 34 35 35 35 35 34 35 35 35 34 34 34 33 33 33 32 32 31 31 31 31 31 32 31 31 31 31 32 32
24 25 26 27 27 28 29 30 30 31 32 33 33 34 34 34 34 34 34 34 34 33 33 32 32 31 31 31 30 30 31 31 30 30 30 30 30 30 30 30 30 30 30
24 24 25 26 27 27 28 29 30 30 31 31 32 33 33 33 33 32 32 32 31 31 31 30 30 30 30 29 29 29 29 29 29 29 29 28 28 28 28 28 28 28 28
24 24 25 25 26 27 27 28 29 29 30 30 30 30 30 31 31 31 30 30 29 29 29 29 29 28 27 27 27 27 27 27 27 26 26 26 26 25 25 25 26 26 26
24 24 25 25 26 26 27 27 28 28 28 28 28 28 28 27 27 27 27 27 27 27 28 27 26 25 25 24 25 25 25 25 24 24 24 23 23 23 23 23 23 23 23
Wind_Direction
244 244 245 245 245 246 247 250 250 250 251 254 255 256 258 259 261 263 264 265 266 268 269 270 272 275 278 279 281 282 284 285 286 287 289 291 293 293 294 294 294 295 295
245 245 245 245 245 245 247 249 250 252 253 254 255 257 259 261 262 263 265 266 267 268 269 270 272 275 277 279 281 282 283 284 286 287 289 291 292 293 293 294 294 294 295
246 245 246 245 245 246 247 248 250 252 253 254 256 258 260 262 263 264 266 267 268 268 270 271 274 276 278 279 280 281 283 284 285 287 288 290 291 292 293 292 293 294 295
246 246 246 245 245 245 247 249 250 252 254 255 257 259 261 263 264 266 268 269 268 269 271 273 275 276 278 278 279 280 281 283 285 287 288 289 290 291 292 292 292 294 294
246 246 245 245 245 245 246 249 251 252 255 257 259 260 261 262 264 267 269 269 270 271 273 274 275 275 276 277 279 280 281 283 284 287 288 289 290 290 291 291 292 293 294
246 246 245 245 245 246 247 249 251 253 254 257 258 259 260 262 264 266 267 268 270 271 273 274 275 275 276 278 279 280 281 282 284 286 287 288 289 290 290 292 293 294 294
248 247 246 246 246 247 249 251 252 254 256 258 259 260 261 262 263 264 265 268 270 271 273 273 274 275 277 278 279 281 282 283 285 287 287 287 289 289 290 291 292 294 296
248 248 248 248 248 248 249 251 252 255 257 258 260 261 262 262 263 265 266 268 270 270 271 272 274 276 277 278 279 280 283 285 286 287 287 287 288 289 290 291 292 294 296
251 249 250 250 251 250 251 252 253 256 258 260 260 260 262 263 264 266 267 269 270 271 272 273 275 276 278 279 280 281 283 285 286 286 287 287 289 290 291 292 292 293 294
252 252 252 251 252 252 252 253 254 256 258 261 262 262 262 263 265 267 268 268 270 271 273 274 275 276 277 279 280 282 283 284 285 285 287 288 289 290 291 292 292 293 294
253 254 254 254 254 254 254 255 256 258 260 261 261 261 262 264 265 267 268 269 271 272 273 274 275 276 277 278 280 281 282 283 284 286 287 289 289 289 290 291 292 293 294
256 256 256 255 255 255 256 257 258 260 261 260 261 261 263 264 266 267 269 271 271 272 273 274 275 276 278 279 281 282 282 282 284 286 287 288 289 290 291 292 292 293 294
257 257 257 257 257 258 258 259 260 260 260 260 261 261 263 264 266 267 269 270 272 273 275 275 276 277 279 280 282 282 283 284 285 286 287 288 289 290 291 292 292 293 294
258 258 258 259 260 260 259 260 260 260 260 262 262 263 264 265 266 267 267 269 271 273 275 276 277 278 279 280 281 282 283 285 286 287 287 288 289 290 291 292 292 293 294
258 257 258 260 261 260 260 260 261 260 261 262 264 264 265 265 266 268 269 270 271 273 274 275 275 277 278 279 280 282 284 285 286 287 288 289 289 290 291 291 292 293 294
258 258 260 261 262 261 261 260 259 260 261 263 264 266 267 267 268 269 270 271 272 273 273 274 275 276 277 278 280 282 283 284 285 286 287 288 289 290 291 291 292 293 294
259 259 259 261 261 261 260 260 260 261 263 264 265 267 268 269 269 270 271 271 271 272 273 275 276 277 277 278 280 281 282 283 284 285 286 287 289 289 290 291 292 293 294
259 258 258 260 261 262 261 261 262 262 263 265 266 267 269 269 270 271 271 271 272 273 274 276 277 277 278 279 280 281 282 283 283 284 284 286 287 289 290 291 292 293 294
261 259 260 261 262 262 262 262 262 263 264 265 266 268 269 270 270 271 272 272 273 274 275 276 277 278 279 279 280 280 281 283 283 282 283 284 286 289 290 291 292 293 294
264 263 262 262 262 262 262 262 262 263 264 266 267 268 269 270 270 271 272 274 275 274 275 276 277 278 278 279 280 280 280 281 281 281 282 283 285 287 289 290 291 293 294
265 265 265 265 263 263 263 262 263 264 265 266 267 269 270 271 272 273 273 273 273 274 276 277 277 277 278 279 279 279 280 280 280 280 281 282 284 286 287 288 290 292 293
268 267 267 266 265 263 263 263 263 264 265 266 268 271 272 273 274 274 273 273 274 275 277 277 277 277 278 277 278 277 278 279 280 280 280 282 283 285 286 287 290 292 293
269 268 267 266 265 264 264 265 266 267 267 268 269 270 272 273 273 273 273 273 274 275 276 276 275 275 276 276 276 277 277 278 279 281 282 282 283 285 286 288 290 292 293
273 272 270 268 268 267 267 268 268 269 269 270 271 271 272 271 271 272 272 272 272 273 273 273 274 275 275 275 276 277 278 278 279 281 281 282 283 285 287 289 291 293 294
276 275 273 271 272 272 271 271 270 271 271 271 272 272 272 271 271 271 271 271 270 270 270 272 274 275 275 275 276 277 278 278 279 281 281 281 283 286 288 290 293 295 296
279 277 276 275 274 274 274 273 273 273 272 271 271 271 271 272 271 271 271 271 270 269 270 272 273 274 274 274 276 278 279 280 281 280 281 281 283 287 290 292 294 296 297
Height
5686 5690 5693 5697 5700 5703 5706 5708 5711 5713 5715 5718 5720 5721 5723 5724 5725 5727 5727 5727 5728 5728 5727 5727 5726 5725 5724 5723 5721 5719 5717 5714 5713 5710 5706 5703 5699 5695 5691 5687 5683 5679 5675
5675 5678 5682 5685 5688 5692 5695 5698 5701 5703 5704 5707 5709 5710 5712 5713 5714 5715 5716 5716 5716 5716 5716 5716 5715 5714 5713 5711 5709 5707 5705 5703 5701 5699 5695 5691 5687 5684 5680 5676 5671 5667 5663
5664 5667 5670 5674 5677 5681 5685 5687 5690 5692 5694 5696 5698 5699 5701 5702 5703 5704 5704 5705 5705 5705 5704 5704 5703 5702 5701 5700 5698 5696 5694 5691 5689 5686 5683 5679 5675 5672 5668 5664 5659 5655 5650
5653 5656 5659 5663 5667 5670 5673 5676 5679 5681 5683 5685 5687 5688 5690 5691 5692 5692 5693 5693 5693 5693 5692 5692 5691 5690 5689 5687 5686 5684 5682 5679 5677 5674 5671 5667 5664 5660 5656 5652 5648 5643 5638
5642 5645 5648 5651 5655 5659 5662 5664 5667 5669 5672 5673 5675 5677 5678 5679 5680 5680 5681 5681 5681 5681 5680 5680 5679 5678 5676 5675 5673 5671 5669 5667 5664 5661 5658 5655 5652 5648 5644 5640 5636 5631 5626
5632 5634 5637 5640 5644 5647 5650 5653 5655 5657 5660 5661 5663 5664 5666 5667 5668 5668 5669 5669 5669 5668 5668 5667 5666 5665 5664 5662 5661 5659 5657 5654 5651 5649 5646 5642 5639 5635 5632 5627 5623 5619 5614
5622 5624 5626 5629 5633 5636 5639 5641 5644 5646 5648 5650 5651 5652 5654 5654 5655 5656 5656 5656 5656 5655 5655 5654 5653 5652 5651 5650 5648 5646 5644 5641 5638 5636 5632 5629 5626 5622 5619 5615 5610 5605 5600
5612 5614 5616 5619 5622 5624 5627 5629 5632 5634 5636 5638 5639 5640 5641 5642 5643 5643 5643 5643 5643 5642 5642 5641 5640 5639 5638 5637 5635 5633 5631 5628 5625 5622 5619 5616 5612 5609 5605 5602 5597 5592 5588
5602 5603 5605 5608 5610 5613 5615 5618 5620 5622 5624 5626 5627 5628 5629 5630 5630 5630 5630 5630 5630 5629 5629 5628 5627 5626 5625 5623 5622 5620 5618 5615 5612 5609 5606 5603 5599 5595 5592 5588 5584 5580 5576
5591 5593 5594 5596 5599 5601 5603 5606 5608 5610 5612 5613 5615 5615 5616 5617 5617 5617 5617 5617 5617 5617 5616 5615 5615 5613 5612 5610 5608 5607 5605 5602 5599 5596 5593 5590 5586 5582 5579 5575 5571 5567 5562
5581 5582 5584 5586 5588 5590 5592 5594 5596 5598 5600 5601 5602 5603 5604 5605 5605 5605 5605 5605 5605 5604 5604 5603 5602 5600 5599 5597 5595 5594 5592 5589 5586 5584 5581 5577 5573 5570 5566 5562 5558 5554 5550
5571 5573 5574 5575 5577 5578 5580 5582 5584 5585 5587 5588 5589 5590 5591 5592 5592 5593 5593 5592 5592 5592 5591 5590 5589 5588 5586 5584 5583 5581 5579 5576 5574 5571 5568 5564 5561 5557 5553 5549 5545 5541 5537
5562 5563 5564 5565 5566 5568 5569 5570 5572 5573 5574 5576 5576 5577 5578 5579 5579 5580 5580 5580 5580 5579 5579 5578 5577 5575 5574 5572 5570 5568 5566 5563 5561 5558 5555 5552 5548 5544 5541 5537 5532 5528 5524
5551 5552 5554 5555 5556 5556 5557 5559 5560 5561 5562 5563 5564 5565 5566 5566 5567 5567 5567 5567 5567 5566 5566 5565 5564 5563 5561 5560 5558 5556 5553 5551 5548 5545 5542 5539 5535 5532 5528 5524 5520 5517 5513
5541 5542 5543 5544 5545 5545 5546 5547 5548 5549 5550 5551 5552 5553 5553 5554 5554 5554 5554 5555 5554 5554 5553 5552 5551 5550 5549 5547 5545 5543 5541 5538 5535 5532 5529 5526 5523 5520 5516 5512 5509 5505 5502
5531 5532 5533 5534 5534 5535 5535 5536 5537 5538 5538 5539 5539 5540 5541 5541 5541 5541 5541 5541 5541 5541 5540 5539 5538 5537 5535 5534 5532 5530 5528 5525 5523 5520 5517 5514 5511 5508 5504 5501 5498 5495 5491
5520 5521 5522 5523 5523 5524 5525 5526 5526 5527 5527 5528 5528 5528 5529 5529 5529 5529 5528 5528 5528 5527 5527 5526 5525 5524 5522 5521 5519 5517 5515 5513 5510 5507 5505 5502 5499 5496 5494 5491 5488 5484 5481
5510 5511 5511 5512 5513 5513 5514 5514 5515 5516 5516 5516 5517 5517 5517 5517 5517 5516 5516 5516 5515 5515 5514 5513 5512 5511 5509 5507 5506 5504 5502 5500 5497 5495 5493 5491 5488 5486 5483 5481 5477 5474 5471
5500 5500 5501 5502 5502 5503 5503 5504 5504 5505 5505 5505 5505 5505 5505 5505 5505 5504 5504 5503 5503 5502 5501 5500 5499 5498 5496 5494 5493 5491 5490 5488 5486 5484 5482 5480 5478 5476 5474 5471 5468 5465 5462
5490 5490 5491 5491 5492 5492 5492 5493 5493 5494 5494 5494 5494 5494 5494 5494 5493 5493 5492 5492 5491 5490 5489 5488 5487 5485 5484 5483 5481 5480 5478 5476 5475 5473 5472 5470 5469 5466 5464 5461 5459 5456 5453
5480 5481 5481 5481 5481 5482 5482 5482 5483 5483 5483 5483 5483 5483 5483 5482 5482 5482 5481 5480 5479 5479 5478 5476 5475 5474 5473 5471 5470 5469 5468 5466 5465 5464 5462 5461 5459 5457 5454 5452 5450 5447 5444
5472 5472 5471 5471 5471 5471 5472 5472 5472 5472 5472 5473 5473 5473 5472 5472 5471 5470 5470 5469 5468 5467 5466 5465 5464 5463 5462 5461 5460 5459 5458 5457 5455 5454 5453 5451 5449 5447 5445 5443 5441 5438 5435
5463 5463 5463 5462 5462 5462 5462 5462 5462 5462 5462 5462 5462 5462 5461 5460 5460 5459 5459 5458 5457 5456 5455 5454 5454 5453 5452 5451 5450 5449 5448 5447 5446 5444 5443 5442 5440 5438 5436 5434 5432 5429 5426
5455 5455 5454 5454 5453 5453 5453 5452 5452 5452 5452 5451 5451 5450 5450 5449 5449 5448 5448 5447 5447 5446 5445 5445 5444 5443 5442 5441 5441 5440 5439 5438 5437 5435 5434 5433 5431 5429 5427 5425 5423 5420 5417
5448 5447 5446 5445 5445 5444 5443 5443 5442 5442 5441 5441 5440 5439 5439 5439 5438 5438 5438 5437 5437 5436 5436 5435 5435 5434 5433 5432 5432 5431 5430 5429 5428 5427 5426 5424 5423 5421 5419 5417 5415 5412 5409
5440 5439 5438 5437 5436 5435 5434 5433 5433 5432 5432 5431 5430 5430 5430 5429 5429 5428 5428 5428 5427 5427 5427 5427 5426 5425 5425 5424 5424 5423 5422 5421 5420 5419 5418 5417 5415 5414 5412 5410 5408 5405 5402